Project,Study,Ord_Occ,Event_Num,Cast_ID,Date_Time_UTC,Date_Time_PST,Lat_Dec,Lon_Dec,Sta_ID,Line,Sta,Depth,Pressure,PrQ,Temp1,Temp1Q,Temp2,Temp2Q,TempAve,Salt1,Salt1Q,Salt1_Corr,Salt2,Salt2Q,Salt2_Corr,SaltAve_Corr,Ox1,Ox1Q,Ox1_CruiseCorr,Ox1_StaCorr,Ox2,Ox2Q,Ox2_CruiseCorr,Ox2_StaCorr,OxAve_StaCorr,Ox1uM,Ox1uM_CruiseCorr,Ox1uM_StaCorr,Ox2uM,Ox2uM_CruiseCorr,Ox2uM_StaCorr,OxAveuM_StaCorr,FluorV,FluorQ,EstChl_CruiseCorr,EstChl_StaCorr,ISUSV,ISUSQ,EstNO3_CruiseCorr,EstNO3_StaCorr,SigThetaTS1,SigThetaTS1Q,SigThetaTS2,SigThetaTS2Q,BAT,XMiss,TransQ,pH,pHQ,SPAR,SPARQ,PAR,PARQ,PoT1,PoT2,DynHt,SVA,OxSat1,OxSat2,BTL_Depth,BTL_Temp,SaltB,OxB,OxBuM,Chl-a,Phaeo,NO3,NO2,NH4,PO4,SIL
CalCOFI,2101RL,004,,2101_004d,16-Jan-2021 14:15:31,16-Jan-2021 06:15:31,32.91167,-117.39246,093.3 028.0,093.3,028.0,2.000,2.014,,15.4726,,15.4733,,15.4730,33.5786,,33.5844,33.5697,,33.5717,33.5781,5.5622,,5.8213,5.8200,5.4540,,5.7907,5.7694,5.7947,242.404,254.0087,253.8875,237.689,270.0094,251.6813,252.7844,0.0683,,0.3115,0.3208, ,, , ,24.7726,,24.7656,,0.8110,81.6472,,,,1.8474E+00,,1.0000E-12,,15.4723,15.4730,0.0035,316.482,97.774,95.868,2,,33.5728,5.875,256.23,0.349,0.062,,,,,
CalCOFI,2101RL,004,,2101_004d,16-Jan-2021 14:15:46,16-Jan-2021 06:15:46,32.91166,-117.39242,093.3 028.0,093.3,028.0,3.000,3.021,,15.4693,,15.4712,,15.4703,33.5788,,33.5846,33.5696,,33.5716,33.5781,5.5730,,5.8326,5.8313,5.4875,,5.8263,5.8051,5.8182,242.872,254.4986,254.3781,239.151,270.5299,253.2397,253.8089,0.0688,,0.3156,0.3253, ,, , ,24.7735,,24.7660,,0.8122,81.6228,,,,1.8474E+00,,1.0000E-12,,15.4689,15.4708,0.0084,316.427,97.957,96.454,,,,,,,,,,,,
CalCOFI,2101RL,004,,2101_004d,16-Jan-2021 14:15:47,16-Jan-2021 06:15:47,32.91166,-117.39241,093.3 028.0,093.3,028.0,4.000,4.028,,15.4809,,15.4811,,15.4810,33.5784,,33.5842,33.5695,,33.5715,33.5779,5.5669,,5.8262,5.8249,5.5032,,5.8429,5.8218,5.8234,242.608,254.2223,254.1013,239.832,270.2363,253.9656,254.0335,0.0679,,0.3082,0.3171, ,, , ,24.7707,,24.7638,,0.8125,81.6186,,,,1.8474E+00,,1.0000E-12,,15.4803,15.4805,0.0114,316.727,97.872,96.747,,,,,,,,,,,,
CalCOFI,2101RL,004,,2101_004d,16-Jan-2021 14:15:51,16-Jan-2021 06:15:51,32.91166,-117.39240,093.3 028.0,093.3,028.0,5.000,5.036,,15.4813,,15.4821,,15.4817,33.5784,,33.5842,33.5695,,33.5715,33.5779,5.5710,,5.8305,5.8292,5.5121,,5.8524,5.8313,5.8303,242.788,254.4107,254.2901,240.223,270.4365,254.3824,254.3363,0.0673,,0.3033,0.3117, ,, , ,24.7706,,24.7636,,0.8113,81.6424,,,,1.8474E+00,,1.0000E-12,,15.4806,15.4813,0.0146,316.764,97.946,96.907,,,,,,,,,,,,
CalCOFI,2101RL,004,,2101_004d,16-Jan-2021 14:15:53,16-Jan-2021 06:15:53,32.91166,-117.39239,093.3 028.0,093.3,028.0,6.000,6.043,,15.4810,,15.4812,,15.4811,33.5783,,33.5841,33.5695,,33.5715,33.5778,5.5692,,5.8286,5.8273,5.5142,,5.8546,5.8335,5.8304,242.709,254.3280,254.2072,240.311,270.3486,254.4762,254.3417,0.0663,,0.2951,0.3026, ,, , ,24.7706,,24.7639,,0.8114,81.6409,,,,1.8474E+00,,1.0000E-12,,15.4801,15.4803,0.0178,316.796,97.913,96.940,,,,,,,,,,,,
CalCOFI,2101RL,004,,2101_004d,16-Jan-2021 14:15:55,16-Jan-2021 06:15:55,32.91166,-117.39238,093.3 028.0,093.3,028.0,7.000,7.050,,15.4802,,15.4804,,15.4803,33.5785,,33.5843,33.5696,,33.5716,33.5780,5.5734,,5.8330,5.8317,5.5139,,5.8543,5.8332,5.8325,242.893,254.5206,254.4001,240.301,270.5532,254.4655,254.4328,0.0672,,0.3024,0.3108, ,, , ,24.7710,,24.7641,,0.8131,81.6045,,,,1.8474E+00,,1.0000E-12,,15.4792,15.4793,0.0210,316.793,97.986,96.935,,,,,,,,,,,,
CalCOFI,2101RL,004,,2101_004d,16-Jan-2021 14:15:57,16-Jan-2021 06:15:57,32.91166,-117.39238,093.3 028.0,093.3,028.0,8.000,8.057,,15.4803,,15.4800,,15.4802,33.5788,,33.5846,33.5698,,33.5718,33.5782,5.5749,,5.8346,5.8333,5.5192,,5.8599,5.8388,5.8361,242.955,254.5855,254.4651,240.532,270.6222,254.7117,254.5884,0.0696,,0.3221,0.3326, ,, , ,24.7713,,24.7644,,0.8107,81.6539,,,,1.8474E+00,,1.0000E-12,,15.4790,15.4788,0.0242,316.796,98.011,97.027,,,,,,,,,,,,
CalCOFI,2101RL,004,,2101_004d,16-Jan-2021 14:15:59,16-Jan-2021 06:15:59,32.91166,-117.39238,093.3 028.0,093.3,028.0,9.000,9.064,,15.4803,,15.4807,,15.4805,33.5788,,33.5846,33.5700,,33.5720,33.5783,5.5626,,5.8217,5.8204,5.5150,,5.8555,5.8344,5.8274,242.423,254.0286,253.9074,240.347,270.0306,254.5145,254.2110,0.0681,,0.3098,0.3190, ,, , ,24.7713,,24.7644,,0.8115,81.6386,,,,1.8474E+00,,1.0000E-12,,15.4789,15.4793,0.0274,316.822,97.797,96.954,,,,,,,,,,,,
CalCOFI,2101RL,004,,2101_004d,16-Jan-2021 14:16:02,16-Jan-2021 06:16:02,32.91166,-117.39238,093.3 028.0,093.3,028.0,10.000,10.071,,15.4754,,15.4767,,15.4761,33.5813,,33.5871,33.5725,,33.5745,33.5808,5.5603,,5.8193,5.8180,5.5034,,5.8432,5.8220,5.8200,242.318,253.9187,253.7973,239.841,269.9138,253.9752,253.8863,0.0687,,0.3147,0.3244, ,, , ,24.7744,,24.7673,,0.8120,81.6277,,,,1.8474E+00,,1.0000E-12,,15.4739,15.4751,0.0306,316.567,97.747,96.744,10,,33.5833,5.795,252.77,0.262,0.047,,,,,
CalCOFI,2101RL,004,,2101_004d,16-Jan-2021 14:16:04,16-Jan-2021 06:16:04,32.91166,-117.39238,093.3 028.0,093.3,028.0,11.000,11.078,,15.4611,,15.4612,,15.4612,33.5819,,33.5877,33.5731,,33.5751,33.5814,5.5523,,5.8109,5.8096,5.5083,,5.8484,5.8272,5.8184,241.971,253.5554,253.4335,240.052,269.5279,254.2001,253.8168,0.0716,,0.3385,0.3508, ,, , ,24.7780,,24.7713,,0.8125,81.6175,,,,1.8474E+00,,1.0000E-12,,15.4594,15.4595,0.0338,316.247,97.580,96.801,,,,,,,,,,,,
CalCOFI,2101RL,004,,2101_004d,16-Jan-2021 14:16:05,16-Jan-2021 06:16:05,32.91166,-117.39238,093.3 028.0,093.3,028.0,12.000,12.085,,15.4534,,15.4533,,15.4534,33.5815,,33.5873,33.5728,,33.5748,33.5811,5.5415,,5.7996,5.7983,5.5078,,5.8478,5.8267,5.8125,241.499,253.0614,252.9386,240.032,269.0031,254.1788,253.5587,0.0750,,0.3664,0.3817, ,, , ,24.7794,,24.7727,,0.8116,81.6352,,,,1.8474E+00,,1.0000E-12,,15.4515,15.4515,0.0369,316.145,97.374,96.777,,,,,,,,,,,,
CalCOFI,2101RL,004,,2101_004d,16-Jan-2021 14:16:07,16-Jan-2021 06:16:07,32.91167,-117.39237,093.3 028.0,093.3,028.0,13.000,13.093,,15.4385,,15.4385,,15.4385,33.5804,,33.5862,33.5717,,33.5737,33.5800,5.5601,,5.8191,5.8178,5.5152,,5.8557,5.8346,5.8262,242.309,253.9093,253.7878,240.355,269.9038,254.5231,254.1555,0.0786,,0.3959,0.4144, ,, , ,24.7819,,24.7752,,0.8110,81.6479,,,,1.8474E+00,,1.0000E-12,,15.4365,15.4365,0.0401,315.944,97.672,96.879,,,,,,,,,,,,
CalCOFI,2101RL,004,,2101_004d,16-Jan-2021 14:16:09,16-Jan-2021 06:16:09,32.91168,-117.39236,093.3 028.0,093.3,028.0,14.000,14.100,,15.4173,,15.4184,,15.4179,33.5781,,33.5839,33.5696,,33.5716,33.5778,5.5564,,5.8152,5.8139,5.5160,,5.8565,5.8354,5.8247,242.146,253.7386,253.6170,240.387,269.7225,254.5572,254.0871,0.0786,,0.3959,0.4144, ,, , ,24.7849,,24.7781,,0.8110,81.6493,,,,1.8474E+00,,1.0000E-12,,15.4152,15.4162,0.0433,315.691,97.564,96.852,,,,,,,,,,,,
CalCOFI,2101RL,004,,2101_004d,16-Jan-2021 14:16:11,16-Jan-2021 06:16:11,32.91170,-117.39238,093.3 028.0,093.3,028.0,15.000,15.107,,15.4042,,15.4037,,15.4040,33.5766,,33.5824,33.5677,,33.5697,33.5761,5.5566,,5.8154,5.8141,5.5137,,5.8541,5.8330,5.8236,242.155,253.7481,253.6264,240.288,269.7326,254.4516,254.0390,0.0794,,0.4024,0.4217, ,, , ,24.7866,,24.7799,,0.8079,81.7108,,,,1.8474E+00,,1.0000E-12,,15.4019,15.4014,0.0465,315.551,97.542,96.783,,,,,,,,,,,,
CalCOFI,2101RL,004,,2101_004d,16-Jan-2021 14:16:13,16-Jan-2021 06:16:13,32.91170,-117.39237,093.3 028.0,093.3,028.0,16.000,16.114,,15.3895,,15.3894,,15.3895,33.5747,,33.5805,33.5659,,33.5679,33.5742,5.5403,,5.7984,5.7970,5.5037,,5.8435,5.8223,5.8097,241.446,253.0059,252.8830,239.852,268.9441,253.9869,253.4350,0.0790,,0.3991,0.4180, ,, , ,24.7885,,24.7818,,0.8103,81.6621,,,,1.8474E+00,,1.0000E-12,,15.3870,15.3869,0.0497,315.409,97.227,96.579,,,,,,,,,,,,
CalCOFI,2101RL,004,,2101_004d,16-Jan-2021 14:16:15,16-Jan-2021 06:16:15,32.91170,-117.39236,093.3 028.0,093.3,028.0,17.000,17.121,,15.3719,,15.3723,,15.3721,33.5729,,33.5787,33.5643,,33.5663,33.5725,5.4988,,5.7549,5.7535,5.4720,,5.8098,5.7886,5.7711,239.637,251.1122,250.9864,238.468,266.9325,252.5117,251.7491,0.0861,,0.4573,0.4826, ,, , ,24.7910,,24.7843,,0.8075,81.7194,,,,1.8474E+00,,1.0000E-12,,15.3693,15.3697,0.0528,315.197,96.464,95.989,,,,,,,,,,,,
CalCOFI,2101RL,004,,2101_004d,16-Jan-2021 14:16:17,16-Jan-2021 06:16:17,32.91170,-117.39236,093.3 028.0,093.3,028.0,18.000,18.129,,15.3338,,15.3363,,15.3351,33.5687,,33.5745,33.5604,,33.5624,33.5685,5.4953,,5.7513,5.7499,5.4540,,5.7907,5.7694,5.7597,239.481,250.9489,250.8229,237.684,266.7590,251.6760,251.2495,0.1002,,0.5728,0.6107, ,, , ,24.7962,,24.7893,,0.8140,81.5878,,,,1.8474E+00,,1.0000E-12,,15.3310,15.3336,0.0560,314.735,96.326,95.603,,,,,,,,,,,,
CalCOFI,2101RL,004,,2101_004d,16-Jan-2021 14:16:19,16-Jan-2021 06:16:19,32.91170,-117.39236,093.3 028.0,093.3,028.0,19.000,19.136,,15.2415,,15.2390,,15.2403,33.5550,,33.5608,33.5468,,33.5488,33.5548,5.5439,,5.8021,5.8008,5.4900,,5.8289,5.8077,5.8043,241.596,253.1629,253.0403,239.249,269.1109,253.3441,253.1922,0.1093,,0.6474,0.6934, ,, , ,24.8059,,24.8002,,0.8158,81.5496,,,,1.8474E+00,,1.0000E-12,,15.2386,15.2362,0.0592,313.836,96.992,96.040,,,,,,,,,,,,
CalCOFI,2101RL,004,,2101_004d,16-Jan-2021 14:16:21,16-Jan-2021 06:16:21,32.91172,-117.39236,093.3 028.0,093.3,028.0,20.000,20.143,,15.0847,,15.0860,,15.0854,33.5356,,33.5414,33.5270,,33.5290,33.5352,5.5958,,5.8565,5.8552,5.5490,,5.8916,5.8706,5.8629,243.854,255.5266,255.4077,241.817,271.6219,256.0815,255.7446,0.1211,,0.7441,0.8007, ,, , ,24.8253,,24.8184,,0.8198,81.4699,,,,1.8474E+00,,1.0000E-12,,15.0817,15.0830,0.0623,312.013,97.584,96.766,20,,33.5328,5.875,256.24,0.858,0.217,,,,,
CalCOFI,2101RL,004,,2101_004d,16-Jan-2021 14:16:23,16-Jan-2021 06:16:23,32.91172,-117.39236,093.3 028.0,093.3,028.0,21.000,21.150,,15.0311,,15.0312,,15.0312,33.5328,,33.5386,33.5242,,33.5262,33.5324,5.6183,,5.8800,5.8787,5.5666,,5.9103,5.8893,5.8840,244.833,256.5514,256.4341,242.580,272.7105,256.8947,256.6644,0.1347,,0.8555,0.9243, ,, , ,24.8349,,24.8282,,0.8313,81.2356,,,,1.8474E+00,,1.0000E-12,,15.0280,15.0280,0.0655,311.130,97.871,96.964,,,,,,,,,,,,
CalCOFI,2101RL,004,,2101_004d,16-Jan-2021 14:16:25,16-Jan-2021 06:16:25,32.91172,-117.39236,093.3 028.0,093.3,028.0,22.000,22.157,,15.0057,,15.0064,,15.0061,33.5314,,33.5372,33.5227,,33.5247,33.5310,5.6302,,5.8925,5.8912,5.5899,,5.9350,5.9142,5.9027,245.351,257.0936,256.9772,243.596,273.2866,257.9777,257.4775,0.1377,,0.8801,0.9516, ,, , ,24.8393,,24.8325,,0.8377,81.1051,,,,1.8474E+00,,1.0000E-12,,15.0024,15.0031,0.0686,310.738,98.028,97.322,,,,,,,,,,,,
CalCOFI,2101RL,004,,2101_004d,16-Jan-2021 14:16:27,16-Jan-2021 06:16:27,32.91172,-117.39236,093.3 028.0,093.3,028.0,23.000,23.164,,14.9963,,14.9955,,14.9959,33.5339,,33.5397,33.5254,,33.5274,33.5336,5.6351,,5.8976,5.8963,5.6027,,5.9486,5.9278,5.9121,245.563,257.3155,257.1995,244.154,273.5223,258.5725,257.8860,0.1461,,0.9490,1.0279, ,, , ,24.8433,,24.8370,,0.8382,81.0944,,,,1.8474E+00,,1.0000E-12,,14.9928,14.9921,0.0717,310.389,98.096,97.526,,,,,,,,,,,,
CalCOFI,2101RL,004,,2101_004d,16-Jan-2021 14:16:28,16-Jan-2021 06:16:28,32.91172,-117.39236,093.3 028.0,093.3,028.0,24.000,24.172,,14.9956,,14.9960,,14.9958,33.5372,,33.5430,33.5285,,33.5305,33.5368,5.6401,,5.9028,5.9016,5.5951,,5.9406,5.9197,5.9107,245.782,257.5448,257.4291,243.823,273.7658,258.2197,257.8244,0.1506,,0.9858,1.0688, ,, , ,24.8461,,24.8393,,0.8393,81.0724,,,,1.8474E+00,,1.0000E-12,,14.9920,14.9924,0.0749,310.155,98.184,97.396,,,,,,,,,,,,
CalCOFI,2101RL,004,,2101_004d,16-Jan-2021 14:16:30,16-Jan-2021 06:16:30,32.91172,-117.39236,093.3 028.0,093.3,028.0,25.000,25.179,,14.9793,,14.9801,,14.9797,33.5392,,33.5450,33.5304,,33.5324,33.5387,5.6399,,5.9026,5.9014,5.5968,,5.9424,5.9215,5.9115,245.771,257.5333,257.4175,243.892,273.7536,258.2932,257.8554,0.1607,,1.0686,1.1606, ,, , ,24.8511,,24.8442,,0.8446,80.9655,,,,1.8474E+00,,1.0000E-12,,14.9755,14.9763,0.0780,309.704,98.150,97.395,,,,,,,,,,,,
CalCOFI,2101RL,004,,2101_004d,16-Jan-2021 14:16:39,16-Jan-2021 06:16:39,32.91171,-117.39234,093.3 028.0,093.3,028.0,26.000,26.186,,14.9428,,14.9546,,14.9487,33.5398,,33.5456,33.5301,,33.5321,33.5389,5.6498,,5.9130,5.9118,5.6007,,5.9465,5.9257,5.9188,246.200,257.9824,257.8673,244.064,274.2307,258.4766,258.1720,0.1657,,1.1096,1.2061, ,, , ,24.8596,,24.8495,,0.8653,80.5479,,,,1.8474E+00,,1.0000E-12,,14.9389,14.9508,0.0812,308.930,98.250,97.414,,,,,,,,,,,,
CalCOFI,2101RL,004,,2101_004d,16-Jan-2021 14:16:47,16-Jan-2021 06:16:47,32.91170,-117.39234,093.3 028.0,093.3,028.0,27.000,27.193,,14.9171,,14.9166,,14.9169,33.5677,,33.5735,33.5577,,33.5597,33.5666,5.7251,,5.9918,5.9906,5.6871,,6.0383,6.0177,6.0042,249.476,261.4117,261.3020,247.821,277.8736,262.4813,261.8917,0.1733,,1.1718,1.2751, ,, , ,24.8867,,24.8791,,0.8800,80.2521,,,,1.8474E+00,,1.0000E-12,,14.9131,14.9125,0.0843,306.377,99.527,98.859,,,,,,,,,,,,
CalCOFI,2101RL,004,,2101_004d,16-Jan-2021 14:16:53,16-Jan-2021 06:16:53,32.91170,-117.39233,093.3 028.0,093.3,028.0,28.000,28.201,,14.9022,,14.9039,,14.9031,33.5756,,33.5814,33.5669,,33.5689,33.5752,5.5920,,5.8525,5.8512,5.5847,,5.9295,5.9086,5.8799,243.674,255.3381,255.2190,243.354,271.4217,257.7198,256.4694,0.1846,,1.2644,1.3778, ,, , ,24.8960,,24.8890,,0.8786,80.2795,,,,1.8474E+00,,1.0000E-12,,14.8980,14.8997,0.0874,305.523,97.189,97.059,,,,,,,,,,,,
CalCOFI,2101RL,004,,2101_004d,16-Jan-2021 14:16:56,16-Jan-2021 06:16:56,32.91170,-117.39232,093.3 028.0,093.3,028.0,29.000,29.208,,14.7400,,14.7325,,14.7363,33.5528,,33.5586,33.5446,,33.5466,33.5526,5.4205,,5.6730,5.6715,5.3993,,5.7326,5.7111,5.6913,236.194,247.5081,247.3767,235.272,263.1038,249.1050,248.2409,0.2390,,1.7102,1.8723, ,, , ,24.9134,,24.9087,,0.8985,79.8812,,,,1.8474E+00,,1.0000E-12,,14.7357,14.7283,0.0904,303.892,93.889,93.504,,,,,,,,,,,,
CalCOFI,2101RL,004,,2101_004d,16-Jan-2021 14:17:00,16-Jan-2021 06:17:00,32.91170,-117.39231,093.3 028.0,093.3,028.0,30.000,30.215,,14.6319,,14.6311,,14.6315,33.5385,,33.5443,33.5296,,33.5316,33.5380,5.3979,,5.6493,5.6478,5.3723,,5.7039,5.6824,5.6651,235.209,246.4770,246.3440,234.095,262.0085,247.8504,247.0972,0.2357,,1.6831,1.8423, ,, , ,24.9256,,24.9188,,0.8866,80.1188,,,,1.8474E+00,,1.0000E-12,,14.6274,14.6267,0.0935,302.756,93.287,92.838,,,,,,,,,,,,
CalCOFI,2101RL,004,,2101_004d,16-Jan-2021 14:17:04,16-Jan-2021 06:17:04,32.91170,-117.39228,093.3 028.0,093.3,028.0,31.000,31.222,,14.5868,,14.5817,,14.5843,33.5392,,33.5450,33.5316,,33.5336,33.5393,4.9696,,5.2011,5.1991,5.0520,,5.3637,5.3412,5.2702,216.543,226.9374,226.7739,220.136,241.2516,232.9711,229.8725,0.1939,,1.3406,1.4624, ,, , ,24.9357,,24.9309,,0.8628,80.5972,,,,1.8474E+00,,1.0000E-12,,14.5822,14.5771,0.0965,301.815,85.810,87.220,,,,,,,,,,,,
CalCOFI,2101RL,004,,2101_004d,16-Jan-2021 14:17:06,16-Jan-2021 06:17:06,32.91170,-117.39227,093.3 028.0,093.3,028.0,32.000,32.229,,14.0824,,14.0755,,14.0790,33.4838,,33.4896,33.4759,,33.4779,33.4838,4.9012,,5.1295,5.1274,4.9114,,5.2144,5.1914,5.1594,213.549,223.8033,223.6349,213.995,237.9222,226.4252,225.0301,0.1601,,1.0637,1.1552, ,, , ,24.9993,,24.9946,,0.8026,81.8195,,,,1.8474E+00,,1.0000E-12,,14.0778,14.0709,0.0996,295.768,83.740,83.900,,,,,,,,,,,,
CalCOFI,2101RL,004,,2101_004d,16-Jan-2021 14:17:08,16-Jan-2021 06:17:08,32.91170,-117.39226,093.3 028.0,093.3,028.0,33.000,33.237,,13.8790,,13.8787,,13.8789,33.4673,,33.4731,33.4585,,33.4605,33.4668,4.8614,,5.0878,5.0857,4.8725,,5.1731,5.1499,5.1178,211.811,221.9840,221.8127,212.292,235.9896,224.6100,223.2114,0.1517,,0.9948,1.0788, ,, , ,25.0288,,25.0221,,0.7847,82.1867,,,,1.8474E+00,,1.0000E-12,,13.8743,13.8740,0.1025,292.971,82.712,82.894,,,,,,,,,,,,
CalCOFI,2101RL,004,,2101_004d,16-Jan-2021 14:17:10,16-Jan-2021 06:17:10,32.91172,-117.39226,093.3 028.0,093.3,028.0,34.000,34.244,,13.7994,,13.7995,,13.7995,33.4625,,33.4683,33.4543,,33.4563,33.4623,4.7692,,4.9913,4.9891,4.7823,,5.0773,5.0539,5.0215,207.791,217.7758,217.5980,208.362,231.5193,220.4209,219.0095,0.1429,,0.9227,0.9988, ,, , ,25.0415,,25.0352,,0.7784,82.3160,,,,1.8474E+00,,1.0000E-12,,13.7946,13.7947,0.1055,291.787,81.009,81.228,,,,,,,,,,,,
CalCOFI,2101RL,004,,2101_004d,16-Jan-2021 14:17:13,16-Jan-2021 06:17:13,32.91172,-117.39226,093.3 028.0,093.3,028.0,35.000,35.251,,13.6433,,13.6452,,13.6443,33.4562,,33.4620,33.4486,,33.4506,33.4563,4.6871,,4.9054,4.9031,4.7021,,4.9921,4.9684,4.9358,204.207,214.0241,213.8404,204.862,227.5338,216.6901,215.2653,0.1349,,0.8572,0.9261, ,, , ,25.0686,,25.0624,,0.7678,82.5351,,,,1.8474E+00,,1.0000E-12,,13.6384,13.6403,0.1084,289.226,79.358,79.612,,,,,,,,,,,,
CalCOFI,2101RL,004,,2101_004d,16-Jan-2021 14:17:15,16-Jan-2021 06:17:15,32.91172,-117.39226,093.3 028.0,093.3,028.0,36.000,36.259,,13.4808,,13.4840,,13.4824,33.4538,,33.4596,33.4467,,33.4487,33.4542,4.6198,,4.8350,4.8326,4.6314,,4.9170,4.8931,4.8629,201.268,210.9475,210.7590,201.774,224.2656,213.3986,212.0788,0.1229,,0.7589,0.8170, ,, , ,25.0999,,25.0938,,0.7584,82.7284,,,,1.8474E+00,,1.0000E-12,,13.4758,13.4790,0.1113,286.270,77.958,78.155,,,,,,,,,,,,
CalCOFI,2101RL,004,,2101_004d,16-Jan-2021 14:17:17,16-Jan-2021 06:17:17,32.91172,-117.39224,093.3 028.0,093.3,028.0,37.000,37.266,,13.3771,,13.3764,,13.3768,33.4523,,33.4581,33.4443,,33.4463,33.4522,4.5926,,4.8065,4.8041,4.5899,,4.8729,4.8489,4.8265,200.079,209.7029,209.5124,199.964,222.9434,211.4692,210.4908,0.1147,,0.6917,0.7425, ,, , ,25.1197,,25.1137,,0.7522,82.8577,,,,1.8474E+00,,1.0000E-12,,13.3720,13.3712,0.1142,284.403,77.334,77.284,,,,,,,,,,,,
CalCOFI,2101RL,004,,2101_004d,16-Jan-2021 14:17:19,16-Jan-2021 06:17:19,32.91172,-117.39224,093.3 028.0,093.3,028.0,38.000,38.273,,13.3069,,13.3065,,13.3067,33.4557,,33.4615,33.4475,,33.4495,33.4555,4.5664,,4.7791,4.7766,4.5617,,4.8430,4.8189,4.7978,198.935,208.5054,208.3130,198.730,221.6712,210.1539,209.2335,0.1126,,0.6745,0.7234, ,, , ,25.1365,,25.1302,,0.7497,82.9095,,,,1.8474E+00,,1.0000E-12,,13.3016,13.3013,0.1170,282.830,76.784,76.699,,,,,,,,,,,,
CalCOFI,2101RL,004,,2101_004d,16-Jan-2021 14:17:20,16-Jan-2021 06:17:20,32.91172,-117.39222,093.3 028.0,093.3,028.0,39.000,39.280,,13.2615,,13.2614,,13.2615,33.4601,,33.4659,33.4522,,33.4542,33.4601,4.5245,,4.7352,4.7327,4.5223,,4.8011,4.7769,4.7548,197.108,206.5929,206.3975,197.013,219.6396,208.3237,207.3606,0.1121,,0.6704,0.7189, ,, , ,25.1490,,25.1430,,0.7484,82.9360,,,,1.8474E+00,,1.0000E-12,,13.2562,13.2560,0.1199,281.662,76.011,75.970,,,,,,,,,,,,
CalCOFI,2101RL,004,,2101_004d,16-Jan-2021 14:17:22,16-Jan-2021 06:17:22,32.91172,-117.39221,093.3 028.0,093.3,028.0,40.000,40.288,,13.2017,,13.2028,,13.2023,33.4656,,33.4714,33.4581,,33.4601,33.4658,4.4679,,4.6760,4.6734,4.4693,,4.7448,4.7204,4.6969,194.640,204.0094,203.8100,194.702,216.8951,205.8603,204.8352,0.1106,,0.6581,0.7052, ,, , ,25.1653,,25.1593,,0.7469,82.9671,,,,1.8474E+00,,1.0000E-12,,13.1962,13.1973,0.1227,280.141,74.971,74.992,,,,,,,,,,,,
CalCOFI,2101RL,004,,2101_004d,16-Jan-2021 14:17:25,16-Jan-2021 06:17:25,32.91172,-117.39220,093.3 028.0,093.3,028.0,41.000,41.295,,13.1002,,13.0987,,13.0995,33.4716,,33.4774,33.4642,,33.4662,33.4718,4.3723,,4.5759,4.5733,4.3778,,4.6477,4.6230,4.5982,190.469,199.6431,199.4370,190.710,212.2569,201.6051,200.5211,0.1051,,0.6130,0.6553, ,, , ,25.1902,,25.1847,,0.7443,83.0215,,,,1.8474E+00,,1.0000E-12,,13.0946,13.0931,0.1255,277.792,73.216,73.302,,,,,,,,,,,,
CalCOFI,2101RL,004,,2101_004d,16-Jan-2021 14:17:27,16-Jan-2021 06:17:27,32.91172,-117.39220,093.3 028.0,093.3,028.0,42.000,42.302,,12.9423,,12.9390,,12.9407,33.4782,,33.4840,33.4732,,33.4752,33.4796,4.2828,,4.4823,4.4795,4.2884,,4.5527,4.5277,4.5036,186.564,195.5554,195.3428,186.810,207.9145,197.4480,196.3954,0.0927,,0.5114,0.5426, ,, , ,25.2266,,25.2234,,0.7368,83.1780,,,,1.8474E+00,,1.0000E-12,,12.9366,12.9333,0.1283,274.345,71.487,71.574,,,,,,,,,,,,
CalCOFI,2101RL,004,,2101_004d,16-Jan-2021 14:17:29,16-Jan-2021 06:17:29,32.91172,-117.39220,093.3 028.0,093.3,028.0,43.000,43.310,,12.8877,,12.8875,,12.8876,33.4983,,33.5041,33.4908,,33.4928,33.4985,4.2148,,4.4111,4.4082,4.2150,,4.4748,4.4496,4.4289,183.597,192.4495,192.2321,183.606,204.6151,194.0328,193.1325,0.0876,,0.4696,0.4962, ,, , ,25.2530,,25.2472,,0.7327,83.2619,,,,1.8474E+00,,1.0000E-12,,12.8819,12.8817,0.1310,271.856,70.281,70.280,,,,,,,,,,,,
CalCOFI,2101RL,004,,2101_004d,16-Jan-2021 14:17:31,16-Jan-2021 06:17:31,32.91172,-117.39220,093.3 028.0,093.3,028.0,44.000,44.317,,12.8572,,12.8561,,12.8567,33.5066,,33.5124,33.4990,,33.5010,33.5067,4.1611,,4.3549,4.3520,4.1617,,4.4181,4.3928,4.3724,181.254,189.9969,189.7756,181.284,202.0097,191.5577,190.6667,0.0876,,0.4696,0.4962, ,, , ,25.2654,,25.2598,,0.7313,83.2915,,,,1.8474E+00,,1.0000E-12,,12.8512,12.8502,0.1338,270.701,69.345,69.351,,,,,,,,,,,,
CalCOFI,2101RL,004,,2101_004d,16-Jan-2021 14:17:32,16-Jan-2021 06:17:32,32.91172,-117.39220,093.3 028.0,093.3,028.0,45.000,45.324,,12.7948,,12.7935,,12.7942,33.5215,,33.5273,33.5141,,33.5161,33.5217,4.1620,,4.3558,4.3529,4.1490,,4.4047,4.3792,4.3661,181.288,190.0325,189.8113,180.726,202.0475,190.9629,190.3871,0.0849,,0.4475,0.4717, ,, , ,25.2892,,25.2838,,0.7297,83.3244,,,,1.8474E+00,,1.0000E-12,,12.7887,12.7874,0.1365,268.456,69.276,69.056,,,,,,,,,,,,
CalCOFI,2101RL,004,,2101_004d,16-Jan-2021 14:17:34,16-Jan-2021 06:17:34,32.91172,-117.39220,093.3 028.0,093.3,028.0,46.000,46.331,,12.7612,,12.7602,,12.7607,33.5290,,33.5348,33.5210,,33.5230,33.5289,4.1452,,4.3383,4.3353,4.1416,,4.3968,4.3714,4.3534,180.556,189.2662,189.0438,180.398,201.2335,190.6133,189.8286,0.0865,,0.4606,0.4862, ,, , ,25.3016,,25.2956,,0.7307,83.3044,,,,1.8474E+00,,1.0000E-12,,12.7551,12.7541,0.1392,267.300,68.953,68.887,,,,,,,,,,,,
CalCOFI,2101RL,004,,2101_004d,16-Jan-2021 14:17:37,16-Jan-2021 06:17:37,32.91172,-117.39218,093.3 028.0,093.3,028.0,47.000,47.339,,12.7392,,12.7367,,12.7380,33.5335,,33.5393,33.5260,,33.5280,33.5337,4.1164,,4.3081,4.3051,4.1091,,4.3623,4.3367,4.3209,179.300,187.9514,187.7270,178.982,199.8368,189.1040,188.4155,0.0807,,0.4131,0.4335, ,, , ,25.3095,,25.3042,,0.7294,83.3318,,,,1.8474E+00,,1.0000E-12,,12.7329,12.7304,0.1419,266.581,68.444,68.316,,,,,,,,,,,,
CalCOFI,2101RL,004,,2101_004d,16-Jan-2021 14:17:39,16-Jan-2021 06:17:39,32.91172,-117.39218,093.3 028.0,093.3,028.0,48.000,48.346,,12.7297,,12.7318,,12.7308,33.5430,,33.5488,33.5346,,33.5366,33.5427,3.9943,,4.1803,4.1772,3.9991,,4.2454,4.2196,4.1984,173.980,182.3825,182.1493,174.192,193.9209,183.9982,183.0738,0.0767,,0.3803,0.3971, ,, , ,25.3187,,25.3118,,0.7309,83.2992,,,,1.8474E+00,,1.0000E-12,,12.7233,12.7253,0.1445,265.727,66.405,66.484,,,,,,,,,,,,
CalCOFI,2101RL,004,,2101_004d,16-Jan-2021 14:17:41,16-Jan-2021 06:17:41,32.91172,-117.39218,093.3 028.0,093.3,028.0,49.000,49.353,,12.7544,,12.7543,,12.7544,33.5667,,33.5725,33.5586,,33.5606,33.5666,3.9528,,4.1369,4.1337,3.9496,,4.1929,4.1668,4.1503,172.172,180.4898,180.2538,172.032,191.9104,181.6958,180.9748,0.0735,,0.3541,0.3680, ,, , ,25.3323,,25.3260,,0.7306,83.3065,,,,1.8474E+00,,1.0000E-12,,12.7478,12.7478,0.1472,264.465,65.759,65.702,,,,,,,,,,,,
CalCOFI,2101RL,004,,2101_004d,16-Jan-2021 14:17:43,16-Jan-2021 06:17:43,32.91172,-117.39218,093.3 028.0,093.3,028.0,50.000,50.361,,12.7258,,12.7255,,12.7257,33.5733,,33.5791,33.5653,,33.5673,33.5732,3.9447,,4.1284,4.1252,3.9254,,4.1672,4.1411,4.1332,171.816,180.1172,179.8805,170.978,191.5145,180.5723,180.2264,0.0746,,0.3631,0.3780, ,, , ,25.3430,,25.3369,,0.7308,83.3022,,,,1.8474E+00,,1.0000E-12,,12.7191,12.7188,0.1499,263.470,65.587,65.264,50,,33.5686,4.100,178.81,0.288,0.327,,,,,
CalCOFI,2101RL,004,,2101_004d,16-Jan-2021 14:17:44,16-Jan-2021 06:17:44,32.91172,-117.39218,093.3 028.0,093.3,028.0,51.000,51.368,,12.7014,,12.7012,,12.7013,33.5760,,33.5818,33.5681,,33.5701,33.5760,3.9370,,4.1204,4.1172,3.9106,,4.1514,4.1253,4.1213,171.481,179.7665,179.5293,170.329,191.1420,179.8805,179.7049,0.0713,,0.3360,0.3480, ,, , ,25.3499,,25.3438,,0.7329,83.2585,,,,1.8474E+00,,1.0000E-12,,12.6945,12.6943,0.1525,262.842,65.428,64.985,,,,,,,,,,,,